Tracking 35048 objects as of 19-Aug-2026
HD Live streaming from Space Station
objects crossing your sky now

ARIANE 1 DEB


ARIANE 1 DEB is no longer on orbit


NORAD ID: 17690
Int'l Code: 1986-019LG
Launch date: February 22, 1986
Source: France (FR)
Launch site: FRENCH GUIANA (FRGUI)
Decay date: 1989-06-08

Note: This is SATELLITE DEBRIS
Your satellite tracking list
Your tracking list is empty




NASA's NSSDC Master Catalog

Two Line Element Set (TLE):
1 17690U 86019 LG 92312.76217841  .00000097 +00000-0 +15597-3 0  9996
2 17690 090.3595 046.2593 0109585 236.6624 122.4024 13.42872958252117
Source of the keplerian elements: AFSPC